Regional Weather Roundup
Issued by NWS

Home | Current Version | Previous Version | Text Only | Print | Product List | Glossary On
Versions: 1 2 3 4 5 6 7 8 9 10 11 12 13 14 15 16 17 18 19 20 21 22 23 24 25 26 27 28 29 30 31 32 33 34 35 36 37 38 39 40 41 42 43 44 45 46 47 48 49 50
000
ASUS42 KTBW 281420
RWRFL
FLORIDA REGIONAL WEATHER ROUNDUP
NATIONAL WEATHER SERVICE TAMPA BAY RUSKIN FL
1000 AM EDT FRI AUG 28 2015

NOTE: "FAIR" INDICATES FEW OR NO CLOUDS BELOW 12,000 FEET WITH NO
SIGNIFICANT WEATHER AND/OR OBSTRUCTIONS TO VISIBILITY.


FLZ001>010-012>015-112-114-115-281500-
PANHANDLE FLORIDA

CITY           SKY/WX    TMP DP  RH WIND       PRES   REMARKS
PENSACOLA      SUNNY     79  66  64 NE5       30.01R
PENSACOLA NAS  MOSUNNY   80  68  66 CALM      30.00R
MILTON NAS     MOSUNNY   77  66  68 NE7       30.02
CRESTVIEW      MOSUNNY   75  67  76 E6        30.04R
DUKE FIELD     MOSUNNY   76  66  70 S2        30.01R
MARY ESTHER    MOSUNNY   79  66  64 N2        30.00R
TRI COUNTY     FAIR      80  71  74 VRB6      30.04R
PANAMA CITY    FAIR      81  68  64 E3        30.01R
TYNDALL AFB    MOSUNNY   81  71  73 E5        30.01R
APALACHICOLA   MOSUNNY   78  73  84 NE7       30.00R

STATION/POSITION SKY/WX   TEMP    WIND        PRES    WAVE   SWELL
                          AIR SEA DIR/SP/G            HT/PER HT/PER
                          (F)     (DEG/KT/KT) (MB)    (FT/S) (FT/S)
30.1N   87.6W              83 85  200/  4/  6 1015.5R   1
29.2N   88.2W              80 85  180/ 10/ 12 1016.0R   1
28.8N   86.0W              84 85  170/  2/  4 1015.6R   1/ 3
PANAMA CITY BEAC           77 84   50/  7/  8 1015.8R
CAPE SAN BLAS    NOT AVBL
TOWER C                    84      80/  6/  7 1015.7R
28.5N   84.5W              86 87  200/  6/  8 1015.7R   1/ 4   2/ 4

$$
FLZ011-016>038-118-127-128-134-139-239-281500-
NORTH FLORIDA

CITY           SKY/WX    TMP DP  RH WIND       PRES   REMARKS
MARIANNA       SUNNY     80  73  79 E6        30.02S
TALLAHASSEE    PTSUNNY   79  72  79 CALM      30.04R
PERRY          CLOUDY   N/A N/A N/A E5        30.04R
CROSS CITY       N/A     82  73  74 VRB6      30.03R
LAKE CITY      FAIR      79  75  89 SE5       30.05R
GAINESVILLE    MOSUNNY   80  73  79 VRB5      30.05S
MAYPORT NAS    PTSUNNY   84  73  69 E5        30.05R
JACKSONVILLE   PTSUNNY   83  72  69 E7        30.05R
JAX NAS        PTSUNNY   85  72  65 SE7       30.06R
JAX CRAIG      MOSUNNY   84  74  71 VRB3      30.05R
JAX CECIL      SUNNY     82  75  78 CALM      30.05R
FERNANDINA BEA FAIR      86  75  70 SE5       30.04R HX  95
ST AUGUSTINE   PTSUNNY   83  76  79 CALM      30.06R

STATION/POSITION SKY/WX   TEMP    WIND        PRES    WAVE   SWELL
                          AIR SEA DIR/SP/G            HT/PER HT/PER
                          (F)     (DEG/KT/KT) (MB)    (FT/S) (FT/S)
SHELL POINT                80      90/  5/  9   N/A
KEATON BEACH               78      90/  9/ 11 1017.1R
CEDAR KEY                  81     120/  8/ 10 1017.2R
FERNANDINA                 82 86  180/  2/  3 1016.6R
30.7N   81.3W                 85                N/A     2/10
MAYPORT                    81 85   CALM  /  1 1017.4R
31.4N   80.9W              83 85   90/  6/ 10 1018.3R   2/ 9   2/ 9
ST AUGUSTINE               80 85  180/  3/  4 1018.4R

$$
FLZ040-043>046-052-053-057-058-063-144-281500-
INTERIOR CENTRAL FLORIDA

CITY           SKY/WX    TMP DP  RH WIND       PRES   REMARKS
OCALA          SUNNY     81  72  74 CALM      30.05R
THE VILLAGES     N/A     81  75  83 CALM      29.95R
LEESBURG       SUNNY     82  73  74 CALM      30.05R
SANFORD        SUNNY     82  74  76 E5        30.04R
ORLANDO EXEC   SUNNY     82  75  79 SE5       30.04R
ORLANDO INTL   MOSUNNY   81  75  82 E3        30.04R
KISSIMMEE      MOSUNNY   81  75  83 CALM      30.04R
WINTER HAVEN   SUNNY     80  75  84 E6        30.04R
LAKELAND       SUNNY     82  75  78 SE5       30.03R
BARTOW         PTSUNNY   81  75  83 SE7       30.03S
OKEECHOBEE     CLOUDY    81  77  89 SE3       30.03S

$$
FLZ041-047-054-059-064-141-147-281500-
EAST CENTRAL FLORIDA

CITY           SKY/WX    TMP DP  RH WIND       PRES   REMARKS
ORMOND BEACH   MOSUNNY   79  73  83 MISG      30.04S
DAYTONA BEACH  PTSUNNY   81  75  82 CALM      30.05R
DELAND           N/A     81  75  83 CALM      30.06R
NEW SMYRNA BEA MOSUNNY   81  75  83 CALM      30.05S
TITUSVILLE     MOSUNNY   81  77  89 CALM      30.05R
CAPE CANAVERAL MOSUNNY   85  82  90 VRB1      30.03R HX 102
PATRICK AFB    SUNNY     83  75  75 E3        30.04R
MELBOURNE      MOSUNNY   83  74  74 CALM      30.04R
VERO BEACH     MOSUNNY   85  74  69 SE5       30.04R
FT PIERCE      SUNNY     85  75  72 S5        30.03R
STUART         MOSUNNY   82  73  74 CALM      30.05R

STATION/POSITION SKY/WX   TEMP    WIND        PRES    WAVE   SWELL
                          AIR SEA DIR/SP/G            HT/PER HT/PER
                          (F)     (DEG/KT/KT) (MB)    (FT/S) (FT/S)
28.5N   80.2W              80 83   30/  6/  8 1017.4R
28.9N   78.5W              83 85  280/  2/  4 1017.5R
TRIDENT PIER               83 86   CALM  /  2 1017.4R
28.4N   80.5W                 85                N/A     2/ 9
27.5N   80.2W                 85                N/A     2/ 9

$$
FLZ050-056-061-142-242-148-248-149-249-151-251-155-255-
160-260-281500-
WEST CENTRAL FLORIDA

CITY           SKY/WX    TMP DP  RH WIND       PRES   REMARKS
CRYSTAL RIVER  FAIR      82  73  74 SE5       30.03R
INVERNESS      FAIR      81  75  83 CALM      30.04R
BROOKSVILLE    MOSUNNY   81  74  79 SE3       30.04R
CLEARWATER     PTSUNNY   82  76  81 E7        30.02R
TAMPA INTL     MOSUNNY   83  74  74 SE6       30.03R
TAMPA EXEC     MOSUNNY   86  75  70 CALM      30.03R HX  95
PLANT CITY     MOSUNNY   84  77  79 SE3       30.04R
MACDILL AFB    MOSUNNY   85  79  83 E6        30.02R HX  97
PETER O KNIGHT MOSUNNY   86  77  74 CALM      30.02R HX  97
ST PETERSBURG  PTSUNNY   84  76  76 SE6       30.00R
SARASOTA       MOSUNNY   82  75  79 E8        30.00R
VENICE         FAIR      82  77  83 E7        30.02R

STATION/POSITION SKY/WX   TEMP    WIND        PRES    WAVE   SWELL
                          AIR SEA DIR/SP/G            HT/PER HT/PER
                          (F)     (DEG/KT/KT) (MB)    (FT/S) (FT/S)
CEDAR KEY                  81     120/  8/ 10 1017.2R
28.5N   84.5W              86 87  200/  6/  8 1015.7R   1/ 4   2/ 4
27.3N   84.2W                 87                N/A     2/ 4
CLEARWATER BEACH           81 87  100/  4/  7 1015.9R
MIDDLE TAMPA BAY           79     130/ 12/ 13 1015.9R
VENICE                     83 87   90/  6/  7 1015.9R

$$
FLZ066-069-070-075>078-162-262-165-265-281500-
SOUTHWEST FLORIDA AND KEYS

CITY           SKY/WX    TMP DP  RH WIND       PRES   REMARKS
PUNTA GORDA    SUNNY     83  78  85 S7        30.03R
FT MYERS       SUNNY     84  75  74 S7        30.00R
SOUTHWEST INTL SUNNY     84  76  76 SE7       30.00S
NAPLES         SUNNY     86  75  69 SE9       29.99S HX  95
MARATHON       PTSUNNY   89  76  65 SE5       30.00R HX 100
KEY WEST NAS   PTSUNNY   87  75  67 S7        29.99S HX  96
KEY WEST INTL  SUNNY     86  76  71 S7        30.00R HX  96

STATION/POSITION SKY/WX   TEMP    WIND        PRES    WAVE   SWELL
                          AIR SEA DIR/SP/G            HT/PER HT/PER
                          (F)     (DEG/KT/KT) (MB)    (FT/S) (FT/S)
VENICE                     83 87   90/  6/  7 1015.9R
NAPLES                        88              1016.4F
26.0N   85.6W              84 87   20/  2/  4 1015.2R   1/ 5   2/ 5
DRY TORTUGAS               85     130/  8/  9 1015.3S
NW FL BAY                  85     190/  6/  9 1015.5
SAND KEY                   86     150/  2     1015.7R
LONG KEY                   86 87  160/  6/  7 1016.7R
MOLASSES REEF              81 87   80/ 17/ 19 1016.4R

$$
FLZ067-068-071>074-168-172>174-281500-
SOUTHEAST FLORIDA

CITY           SKY/WX    TMP DP  RH WIND       PRES   REMARKS
W PALM BEACH   CLOUDY    85  76  74 S5        30.03R
FT LAUDER-EXEC CLOUDY    87  75  67 S12       30.01R HX  96
FT LAUDERDALE  PTSUNNY   82  71  69 SE8       30.01R
POMPANO BEACH  CLOUDY    87  76  69 S15       30.01R HX  97
PEMBROKE PINES PTSUNNY   85  74  69 SE8       30.03R
OPA LOCKA      PTSUNNY   84  72  67 S6        30.02S
MIAMI          PTSUNNY   85  72  65 SE7       30.02R
WEST KENDALL   PTSUNNY   86  76  71 SE9       30.01S HX  96
HOMESTEAD      PTSUNNY   86  74  67 SE9       30.01R

STATION/POSITION SKY/WX   TEMP    WIND        PRES    WAVE   SWELL
                          AIR SEA DIR/SP/G            HT/PER HT/PER
                          (F)     (DEG/KT/KT) (MB)    (FT/S) (FT/S)
PORT EVERGLADES            83     130/  7/ 14 1016.2S
VIRGINIA KEY               83 86   90/ 12/ 17 1015.9R
LAKE WORTH                 84 86  160/  8/  9 1015.8R
SETTLEMENT POINT           85     170/  8/ 11 1017.1R

$$




USA.gov is the U.S. government's official web portal to all federal, state and local government web resources and services.